History for KNYNEWYO585

Bryant Park, New York, NY — Current Conditions
Daily Summary for October 24, 2017
  Current: High: Low: Average:
Temperature: 70.0°F 70.0°F 68.9°F 69.4°F
Dew Point: 64.9°F 65.8°F 64.8°F 65.2°F
Humidity: 84% 90% 84% 87%
Wind Speed: 0.0mph 21.5mph - 1.4mph
Wind Gust: 0.0mph 36.9mph - -
Wind: South - - WSW
Pressure: 29.90in 30.02in 29.87in -
Precipitation: 0.00in      
Solar Radiation: 0 watts/m^2      
UV Index: 0.0      
Statistics for the rest of the month
    High: Low: Average:
Temperature:   82.6°F 45.7°F 68.1°F
Dew Point:   74.7°F 17.6°F 52.5°F
Humidity:   94.0% 12.0% 61.8%
Wind Speed:   33.6mph from the ENE - 1.9mph
Wind Gust:   45.0mph from the WSW - -
Wind:   - - SSE
Pressure:   30.67in 29.82in -
Precipitation:   0.05in    
KNYNEWYO585 Weather Graph
Tabular Data for October 24, 2017
Time Temp. Dew Point Pressure Wind Gust Humidity Rainfall Solar Radiation
00:02 69.4°F 65.1°F 30.00in 7.4mph 86% 0.00in 0.00 watts/m^2
00:07 69.4°F 65.1°F 30.00in 0.0mph 86% 0.00in 0.00 watts/m^2
00:12 69.4°F 65.1°F 29.99in 0.0mph 86% 0.00in 0.00 watts/m^2
00:17 69.4°F 65.1°F 29.99in 0.0mph 86% 0.00in 0.00 watts/m^2
00:22 69.4°F 65.1°F 30.00in 22.1mph 86% 0.00in 0.00 watts/m^2
00:27 69.4°F 65.1°F 30.00in 0.0mph 86% 0.00in 0.00 watts/m^2
00:32 69.4°F 65.1°F 30.00in 7.4mph 86% 0.00in 0.00 watts/m^2
00:38 69.3°F 64.9°F 30.00in 0.0mph 86% 0.00in 0.00 watts/m^2
00:43 69.3°F 64.9°F 30.00in 7.4mph 86% 0.00in 0.00 watts/m^2
00:48 69.3°F 64.9°F 30.00in 0.0mph 86% 0.00in 0.00 watts/m^2
00:53 69.1°F 64.8°F 30.00in 0.0mph 86% 0.00in 0.00 watts/m^2
00:58 69.1°F 64.8°F 30.00in 7.4mph 86% 0.00in 0.00 watts/m^2
01:03 69.1°F 64.8°F 30.01in 0.0mph 86% 0.00in 0.00 watts/m^2
01:08 69.1°F 64.8°F 30.00in 0.0mph 86% 0.00in 0.00 watts/m^2
01:13 69.1°F 64.8°F 30.01in 14.8mph 86% 0.00in 0.00 watts/m^2
01:18 69.1°F 64.8°F 30.01in 14.8mph 86% 0.00in 0.00 watts/m^2
01:23 69.1°F 64.8°F 30.01in 0.0mph 86% 0.00in 0.00 watts/m^2
01:28 69.1°F 64.8°F 30.01in 7.4mph 86% 0.00in 0.00 watts/m^2
01:34 69.1°F 65.1°F 30.01in 0.0mph 87% 0.00in 0.00 watts/m^2
01:39 69.1°F 65.1°F 30.01in 0.0mph 87% 0.00in 0.00 watts/m^2
01:44 68.9°F 64.9°F 30.02in 0.0mph 87% 0.00in 0.00 watts/m^2
01:49 68.9°F 64.9°F 30.01in 0.0mph 87% 0.00in 0.00 watts/m^2
01:54 68.9°F 64.9°F 30.01in 0.0mph 87% 0.00in 0.00 watts/m^2
01:59 68.9°F 64.9°F 30.01in 0.0mph 87% 0.00in 0.00 watts/m^2
02:04 68.9°F 64.9°F 30.01in 14.8mph 87% 0.00in 0.00 watts/m^2
02:10 68.9°F 64.9°F 30.01in 0.0mph 87% 0.00in 0.00 watts/m^2
02:15 68.9°F 64.9°F 30.00in 0.0mph 87% 0.00in 0.00 watts/m^2
02:20 68.9°F 64.9°F 29.99in 7.4mph 87% 0.00in 0.00 watts/m^2
02:25 68.9°F 64.9°F 29.99in 0.0mph 87% 0.00in 0.00 watts/m^2
02:30 68.9°F 65.3°F 29.99in 7.4mph 88% 0.00in 0.00 watts/m^2
02:35 68.9°F 65.3°F 29.98in 0.0mph 88% 0.00in 0.00 watts/m^2
02:40 68.9°F 65.3°F 29.98in 7.4mph 88% 0.00in 0.00 watts/m^2
02:45 68.9°F 65.3°F 29.98in 0.0mph 88% 0.00in 0.00 watts/m^2
02:50 68.9°F 65.3°F 29.97in 7.4mph 88% 0.00in 0.00 watts/m^2
02:55 68.9°F 65.3°F 29.97in 7.4mph 88% 0.00in 0.00 watts/m^2
03:00 68.9°F 65.3°F 29.96in 0.0mph 88% 0.00in 0.00 watts/m^2
03:10 68.9°F 65.5°F 29.94in 0.0mph 89% 0.00in 0.00 watts/m^2
03:15 68.9°F 65.5°F 29.94in 7.4mph 89% 0.00in 0.00 watts/m^2
03:20 68.9°F 65.5°F 29.93in 0.0mph 89% 0.00in 0.00 watts/m^2
03:26 68.9°F 65.5°F 29.92in 0.0mph 89% 0.00in 0.00 watts/m^2
03:31 68.9°F 65.5°F 29.92in 0.0mph 89% 0.00in 0.00 watts/m^2
03:36 68.9°F 65.5°F 29.92in 7.4mph 89% 0.00in 0.00 watts/m^2
03:41 68.9°F 65.8°F 29.91in 0.0mph 90% 0.00in 0.00 watts/m^2
03:46 68.9°F 65.5°F 29.91in 0.0mph 89% 0.00in 0.00 watts/m^2
03:51 68.9°F 65.5°F 29.91in 7.4mph 89% 0.00in 0.00 watts/m^2
03:56 68.9°F 65.5°F 29.91in 0.0mph 89% 0.00in 0.00 watts/m^2
04:01 68.9°F 65.5°F 29.91in 0.0mph 89% 0.00in 0.00 watts/m^2
04:06 68.9°F 65.5°F 29.90in 7.4mph 89% 0.00in 0.00 watts/m^2
04:11 69.1°F 65.7°F 29.90in 7.4mph 89% 0.00in 0.00 watts/m^2
04:16 69.1°F 65.5°F 29.89in 0.0mph 88% 0.00in 0.00 watts/m^2
04:22 69.3°F 65.3°F 29.90in 0.0mph 87% 0.00in 0.00 watts/m^2
04:27 69.3°F 65.3°F 29.88in 0.0mph 87% 0.00in 0.00 watts/m^2
04:32 69.4°F 65.5°F 29.88in 0.0mph 87% 0.00in 0.00 watts/m^2
04:42 69.6°F 65.7°F 29.87in 0.0mph 87% 0.00in 0.00 watts/m^2
04:47 69.6°F 65.3°F 29.88in 0.0mph 86% 0.00in 0.00 watts/m^2
04:52 69.8°F 65.1°F 29.88in 7.4mph 85% 0.00in 0.00 watts/m^2
04:57 69.8°F 65.1°F 29.88in 7.4mph 85% 0.00in 0.00 watts/m^2
05:02 69.8°F 64.8°F 29.88in 0.0mph 84% 0.00in 0.00 watts/m^2
05:07 70.0°F 65.3°F 29.89in 0.0mph 85% 0.00in 0.00 watts/m^2
05:12 70.0°F 65.3°F 29.91in 0.0mph 85% 0.00in 0.00 watts/m^2
05:18 70.0°F 64.9°F 29.90in 0.0mph 84% 0.00in 0.00 watts/m^2
Comma Delimited File
Powered by Weather Underground, Inc.